Find Hainan-1 01

NORAD ID: 51825 Int'l Des: NNA 2022-019 Owner: SANYZ Country: CN operational
LEOCIRCULARRETROGRADESSO

Current View

Loading 3D Globe...

About Hainan-1 01

Description loading...

Upcoming Passes

Passes for default location (London). Set your location on the main map for personalized predictions.

Altitude History

Loading altitude history...

Two-Line Element Set

1 51825U 22019B 26149.62793950 .00103614 00000-0 76484-3 0 9995
2 51825 97.3492 240.6926 0006216 185.9595 174.1595 15.72659941236847
Epoch: May 29, 2026 • Age: 14 hours

Current Status

Altitude 357.5 km
Velocity 7.69 km/s
Sub-Earth Point 13.55°N, 81.27°W
Launch Date Feb 27, 2022
Age 4.2 years
Type other

Technical Details

Classification Payload
Mass 55.00 kg
Dry Mass 55.00 kg
Total Mass 55.00 kg
Length 0.50 m
Diameter 0.50 m
Span 2.00 m
Shape Box + 2 pan
Manufacturer DFHS
Bus Type Hainan-1
Phase Status In Orbit
Owner/State SANYZ/CN

Most Searched